This is the latest recevied weather packets stored in our database for station/object F4DYW-13. If no packets are shown the sender has not sent any weather packets the latest 10 day(s).
| Time | Temp. | Humidity | Pressure | Rain* | Wind** | Luminosity | Snow |
|---|---|---|---|---|---|---|---|
| 1777839774 | 18.33° C | 63% | 1019.1 hPa | 0 mm | - | - | - |
| 1777838739 | 18.33° C | 63% | 1019 hPa | 0 mm | - | - | - |
| 1777837703 | 18.33° C | 63% | 1018.9 hPa | 0 mm | - | - | - |
| 1777836667 | 18.33° C | 64% | 1018.8 hPa | 0 mm | - | - | - |
| 1777835632 | 18.33° C | 64% | 1018.6 hPa | 0 mm | - | - | - |
| 1777834596 | 18.33° C | 64% | 1018.6 hPa | 0 mm | - | - | - |
| 1777833561 | 18.33° C | 63% | 1018.6 hPa | 0 mm | - | - | - |
| 1777832525 | 18.33° C | 61% | 1018.6 hPa | 0 mm | - | - | - |
| 1777831490 | 18.33° C | 60% | 1018.7 hPa | 0 mm | - | - | - |
| 1777830455 | 18.89° C | 60% | 1018.7 hPa | 0 mm | - | - | - |
| 1777829418 | 18.89° C | 61% | 1018.7 hPa | 0 mm | - | - | - |
| 1777828383 | 18.89° C | 61% | 1018.8 hPa | 0 mm | - | - | - |
| 1777827347 | 18.89° C | 60% | 1018.8 hPa | 0 mm | - | - | - |
| 1777826312 | 18.89° C | 59% | 1018.8 hPa | 0 mm | - | - | - |
| 1777825276 | 18.89° C | 59% | 1018.9 hPa | 0 mm | - | - | - |
| 1777824240 | 18.89° C | 60% | 1019 hPa | 0 mm | - | - | - |
| 1777823204 | 18.89° C | 62% | 1019 hPa | 0 mm | - | - | - |
| 1777822169 | 18.89° C | 60% | 1019.1 hPa | 0 mm | - | - | - |
| 1777821134 | 18.89° C | 61% | 1019 hPa | 0 mm | - | - | - |
| 1777820098 | 18.89° C | 62% | 1019.1 hPa | 0 mm | - | - | - |
| 1777819062 | 18.89° C | 67% | 1019.4 hPa | 0 mm | - | - | - |
| 1777818026 | 18.33° C | 68% | 1019.9 hPa | 0 mm | - | - | - |
| 1777816991 | 18.89° C | 67% | 1020 hPa | 0 mm | - | - | - |
| 1777815955 | 18.89° C | 65% | 1020.3 hPa | 0 mm | - | - | - |
| 1777814919 | 18.33° C | 66% | 1020.7 hPa | 0 mm | - | - | - |
* Rain latest hour (hover to see other rain measurements)
** Current wind speed in m/s (hover to see current wind gust speed)